Flag for Norway Weather past 2 weeks in Fetsund, Norway

Now
44 °F

Quite cool.


Feels Like: 39 °F
Forecast: 33 / 58 °F
Wind: 9 mph from North

Location: Oslo-Blindern


UV Index: 0 (Low)

Visibility: N/A


Pressure: 29.80 "Hg

Humidity: 49%

Dew point: 26 °F

Location of FetsundLocation

Historic Weather in Fetsund

°F

Fetsund temperature yesterday

Maximum temperature yesterday: 46 °F (at 1:00 AM)
Minimum temperature yesterday: 41 °F (at 6:00 AM)
Average temperature yesterday: 43 °F

Past Weeks' High & Low Weather Summary

 TemperatureHumidityPressure
High56 °F (Apr 7, 6:00 PM)99% (Apr 6, 1:00 AM)30.33 "Hg (Apr 6, 1:00 AM)
Low30 °F (Apr 5, 6:00 AM)24% (Apr 14, 3:00 PM)29.32 "Hg (Apr 13, 6:00 AM)
Average42 °F72%29.84 "Hg
* Reported Apr 3 9:00 AM — Apr 18 9:00 AM, Fetsund, Weather by CustomWeather, © 2014

Note: Actual official high and low records may vary slightly from our data, if they occured in-between our weather recording intervals... More about our weather records

Advertising

Historic Weather Conditions — Data for Previous 24 hours

 ConditionsComfort  
Time TempWeatherWind HumidityBarometerVisibility
9:00 AM
Apr 18
44 °FQuite cool.9 mph49%29.80 "HgN/A
8:00 AM42 °FQuite cool.9 mph55%29.77 "HgN/A
7:00 AM41 °FQuite cool.9 mph61%29.73 "HgN/A
6:00 AM40 °FChilly.5 mph67%29.69 "HgN/A
5:00 AM40 °FQuite cool.6 mph67%29.64 "HgN/A
4:00 AM42 °FQuite cool.6 mph72%29.60 "HgN/A
3:00 AM42 °FQuite cool.3 mph76%29.57 "HgN/A
2:00 AM42 °FOvercast.6 mph80%29.54 "Hg43 mi
6:00 PM
Apr 17
44 °FQuite cool.3 mph96%29.41 "HgN/A
5:00 PM43 °FRain. Low clouds.5 mph96%29.44 "Hg5 mi
4:00 PM44 °FQuite cool.5 mph94%29.47 "HgN/A
3:00 PM43 °FQuite cool.6 mph94%29.50 "HgN/A
2:00 PM44 °FLight rain. Low clouds.5 mph91%29.57 "Hg3 mi
1:00 PM43 °FQuite cool.6 mph92%29.61 "HgN/A
12:00 PM43 °FQuite cool.6 mph94%29.66 "HgN/A
11:00 AM43 °FRain. Low clouds.8 mph93%29.70 "Hg3 mi
10:00 AM42 °FQuite cool.5 mph89%29.76 "HgN/A
Weather by CustomWeather, © 2014

See weather overview